Date String (YYYY-MM-DD hh:mm:ss) UTC,Instrument flags,Ambient pressure (hPa),Sample flow (lpm),Bypass flow (lpm),Sample temperature (°C),Ambient temperature (°C),ASC tube jacket temperature (°C),LED temperature (°C),Box temperature (°C),Sample RH (%),Span deviation,Mass concentration (μg/m³),Mass concentration (μg/m³),Mass concentration (μg/m³)
DateTimeUTC,F1_M11,P_M11,Q1_M11,Q2_M11,T1_M11,T2_M11,T3_M11,T4_M11,T5_M11,U1_M11,ZSPAN_M11,X2_M11,X0_M11,X1_M11
2022-05-24 09:00:00,,0825.6,5.00,0.00,28.7,27.5,00.0,37.7,30.5,18.8,0000.0,0005.12,0008.41,0004.73
2022-05-24 09:01:00,,0825.6,5.00,0.00,28.7,27.5,00.0,37.7,30.5,18.9,0000.0,0005.11,0008.37,0004.73
2022-05-24 09:02:00,,0825.6,4.99,0.00,28.7,27.5,00.0,37.6,30.5,19.0,0000.0,0005.11,0008.36,0004.72
2022-05-24 09:03:00,,0825.6,5.00,0.00,28.7,27.4,00.0,37.6,30.5,19.1,0000.0,0005.12,0008.33,0004.72
2022-05-24 09:04:00,,0825.6,5.01,0.00,28.7,27.4,00.0,37.6,30.5,19.1,0000.0,0005.08,0008.17,0004.71
2022-05-24 09:05:00,,0825.6,5.00,0.00,28.6,27.4,00.0,37.6,30.5,19.2,0000.0,0005.07,0008.18,0004.67
2022-05-24 09:06:00,,0825.5,5.00,0.00,28.6,27.4,00.0,37.6,30.4,19.1,0000.0,0005.08,0008.18,0004.65
2022-05-24 09:07:00,,0825.5,5.00,0.00,28.6,27.4,00.0,37.6,30.4,19.2,0000.0,0005.05,0007.94,0004.63
2022-05-24 09:08:00,,0825.5,4.99,0.00,28.6,27.4,00.0,37.6,30.4,19.1,0000.0,0005.00,0007.86,0004.59
2022-05-24 09:09:00,,0825.5,5.01,0.00,28.6,27.4,00.0,37.6,30.4,19.1,0000.0,0004.96,0007.77,0004.54
2022-05-24 09:10:00,,0825.5,4.99,0.00,28.6,27.4,00.0,37.6,30.4,19.0,0000.0,0004.89,0007.66,0004.48
2022-05-24 09:11:00,,0825.5,5.00,0.00,28.6,27.4,00.0,37.6,30.4,18.9,0000.0,0004.81,0007.52,0004.40
2022-05-24 09:12:00,,0825.5,5.00,0.00,28.6,27.4,00.0,37.6,30.4,18.8,0000.0,0004.73,0007.47,0004.33
2022-05-24 09:13:00,,0825.5,5.00,0.00,28.6,27.4,00.0,37.6,30.4,18.7,0000.0,0004.65,0007.59,0004.25
2022-05-24 09:14:00,,0825.6,5.00,0.00,28.6,27.4,00.0,37.6,30.4,18.6,0000.0,0004.53,0007.42,0004.15
2022-05-24 09:15:00,,0825.6,5.00,0.00,28.6,27.4,00.0,37.6,30.4,18.5,0000.0,0004.44,0007.28,0004.06
2022-05-24 09:16:00,,0825.6,5.01,0.00,28.6,27.4,00.0,37.6,30.4,18.5,0000.0,0004.31,0006.87,0003.99
2022-05-24 09:17:00,,0825.5,5.00,0.00,28.6,27.3,00.0,37.6,30.4,18.4,0000.0,0004.21,0006.69,0003.90
2022-05-24 09:18:00,,0825.6,5.00,0.00,28.5,27.3,00.0,37.5,30.4,18.3,0000.0,0004.11,0006.56,0003.82
2022-05-24 09:19:00,,0825.6,4.99,0.00,28.5,27.3,00.0,37.5,30.3,18.2,0000.0,0004.04,0006.54,0003.75
2022-05-24 09:20:00,,0825.6,5.00,0.00,28.5,27.3,00.0,37.5,30.3,18.1,0000.0,0003.96,0006.35,0003.69
2022-05-24 09:21:00,,0825.7,5.01,0.00,28.5,27.3,00.0,37.5,30.3,18.1,0000.0,0003.89,0006.15,0003.64
2022-05-24 09:22:00,,0825.7,5.00,0.00,28.5,27.3,00.0,37.5,30.3,18.0,0000.0,0003.83,0006.02,0003.59
2022-05-24 09:23:00,,0825.7,5.00,0.00,28.5,27.3,00.0,37.5,30.3,18.0,0000.0,0003.79,0005.91,0003.54
2022-05-24 09:24:00,,0825.8,4.99,0.00,28.5,27.3,00.0,37.5,30.3,17.9,0000.0,0003.73,0005.41,0003.50
2022-05-24 09:25:00,,0825.8,4.99,0.00,28.5,27.3,00.0,37.5,30.3,17.9,0000.0,0003.69,0005.33,0003.47
2022-05-24 09:26:00,,0825.9,5.01,0.00,28.5,27.3,00.0,37.5,30.3,17.8,0000.0,0003.66,0005.20,0003.44
2022-05-24 09:27:00,,0825.9,4.99,0.00,28.5,27.3,00.0,37.5,30.3,17.7,0000.0,0003.62,0005.11,0003.41
2022-05-24 09:28:00,,0825.9,5.00,0.00,28.5,27.3,00.0,37.5,30.3,17.7,0000.0,0003.57,0004.98,0003.38
2022-05-24 09:29:00,,0825.9,5.01,0.00,28.5,27.3,00.0,37.5,30.3,17.8,0000.0,0003.54,0005.30,0003.36
2022-05-24 09:30:00,,0825.9,5.00,0.00,28.5,27.3,00.0,37.5,30.3,17.7,0000.0,0003.50,0005.08,0003.33
2022-05-24 09:31:00,,0825.9,4.99,0.00,28.5,27.2,00.0,37.5,30.3,17.7,0000.0,0003.47,0005.03,0003.30
2022-05-24 09:32:00,,0825.9,4.99,0.00,28.5,27.2,00.0,37.5,30.3,17.7,0000.0,0003.45,0005.26,0003.28
2022-05-24 09:33:00,,0825.9,5.01,0.00,28.5,27.2,00.0,37.4,30.3,17.7,0000.0,0003.43,0005.43,0003.25
2022-05-24 09:34:00,,0825.8,5.00,0.00,28.4,27.2,00.0,37.4,30.3,17.7,0000.0,0003.39,0005.25,0003.24
2022-05-24 09:35:00,,0825.8,5.00,0.00,28.4,27.2,00.0,37.4,30.2,17.8,0000.0,0003.39,0005.29,0003.23
2022-05-24 09:36:00,,0825.7,4.99,0.00,28.4,27.2,00.0,37.4,30.3,17.8,0000.0,0003.40,0005.35,0003.23
2022-05-24 09:37:00,,0825.8,5.00,0.00,28.4,27.2,00.0,37.4,30.2,17.8,0000.0,0003.41,0005.41,0003.23
2022-05-24 09:38:00,,0825.8,4.99,0.00,28.4,27.2,00.0,37.4,30.2,17.8,0000.0,0003.41,0005.39,0003.23
2022-05-24 09:39:00,,0825.7,5.00,0.00,28.4,27.2,00.0,37.4,30.2,17.9,0000.0,0003.41,0005.42,0003.23
2022-05-24 09:40:00,,0825.7,5.01,0.00,28.4,27.2,00.0,37.4,30.2,17.9,0000.0,0003.40,0004.87,0003.23
2022-05-24 09:41:00,,0825.7,5.00,0.00,28.4,27.2,00.0,37.4,30.2,17.8,0000.0,0003.40,0004.81,0003.23
2022-05-24 09:42:00,,0825.7,5.00,0.00,28.4,27.2,00.0,37.4,30.2,17.8,0000.0,0003.42,0004.82,0003.25
2022-05-24 09:43:00,,0825.7,5.00,0.00,28.4,27.2,00.0,37.4,30.2,17.8,0000.0,0003.43,0004.65,0003.27
2022-05-24 09:44:00,,0825.7,5.00,0.00,28.4,27.2,00.0,37.4,30.2,17.7,0000.0,0003.44,0004.42,0003.28
2022-05-24 09:45:00,,0825.7,5.00,0.00,28.4,27.2,00.0,37.4,30.2,17.7,0000.0,0003.46,0004.50,0003.29
2022-05-24 09:46:00,,0825.6,4.99,0.00,28.4,27.2,00.0,37.4,30.2,17.7,0000.0,0003.47,0004.54,0003.29
2022-05-24 09:47:00,,0825.6,5.00,0.00,28.4,27.2,00.0,37.4,30.2,17.7,0000.0,0003.46,0004.57,0003.28
2022-05-24 09:48:00,,0825.6,4.99,0.00,28.4,27.2,00.0,37.4,30.2,17.7,0000.0,0003.43,0004.49,0003.26
2022-05-24 09:49:00,,0825.6,5.00,0.00,28.4,27.2,00.0,37.4,30.2,17.6,0000.0,0003.42,0004.46,0003.24
2022-05-24 09:50:00,,0825.5,5.00,0.00,28.4,27.2,00.0,37.4,30.2,17.6,0000.0,0003.42,0004.58,0003.23
2022-05-24 09:51:00,,0825.6,4.99,0.00,28.4,27.2,00.0,37.4,30.2,17.5,0000.0,0003.41,0004.60,0003.22
2022-05-24 09:52:00,,0825.5,5.01,0.00,28.4,27.2,00.0,37.4,30.2,17.4,0000.0,0003.40,0004.60,0003.20
2022-05-24 09:53:00,,0825.5,4.99,0.00,28.4,27.2,00.0,37.3,30.2,17.4,0000.0,0003.38,0004.58,0003.18
2022-05-24 09:54:00,,0825.6,5.01,0.00,28.3,27.1,00.0,37.3,30.2,17.4,0000.0,0003.36,0004.56,0003.16
2022-05-24 09:55:00,,0825.6,5.01,0.00,28.4,27.1,00.0,37.3,30.2,17.4,0000.0,0003.34,0004.54,0003.13
2022-05-24 09:56:00,,0825.6,5.00,0.00,28.4,27.1,00.0,37.3,30.2,17.4,0000.0,0003.31,0004.47,0003.10
2022-05-24 09:57:00,,0825.6,4.99,0.00,28.4,27.1,00.0,37.3,30.2,17.4,0000.0,0003.27,0004.38,0003.06
2022-05-24 09:58:00,,0825.6,5.00,0.00,28.3,27.1,00.0,37.3,30.2,17.4,0000.0,0003.22,0004.31,0003.00
2022-05-24 09:59:00,,0825.6,4.99,0.00,28.3,27.1,00.0,37.3,30.2,17.4,0000.0,0003.17,0004.12,0002.94
